AFOTEC-1 (FALCON ODE) (44225 NORAD) Tracking and Keplerian Element Data

This shows tracking and keplerian element data for the satellite.

Feedback or suggestion? Click here.




ElementValue
Catalog44225
NameAFOTEC-1 (FALCON ODE)
Epoch Orbit314
Epoch Day145.96402653
Epoch Year2019
RAAN114.3291
Inclination40.0192
Eccentricity0.0006349
Argument of Perigee52.2464
Mean Anonmoly307.8918
Mean Motion15.20208656
Decay Rate1.87E-06
L11 44225U 19026A 19145.96402653 .00000187 00000-0 16616-4 0 9990
L22 44225 40.0192 114.3291 0006349 52.2464 307.8918 15.20208656 3140

Live tracking and technical data element details for AFOTEC-1 (FALCON ODE) (NORAD 44225). AFOTEC-1 (FALCON ODE) can be tracked NOW for your location showing map with azimuth and elevation plus other details from your city location.

Track the satellite on the map from your city or location and see movement details for azimuth, elevation, latitude, longitude, range, height, and movement on the map or in text.







IsCatalogInMostPopularTable: catalog: 44225, numindb: 6
Update: records affected: 1



GetName: 44225 AFOTEC-1 (FALCON ODE)

Hit Count: updated at: Sun, 26 May 2019 06:53:36 GMT